Time,TemperatureF,DewpointF,PressureIn,WindDirection,WindDirectionDegrees,WindSpeedMPH,WindSpeedGustMPH,Humidity,HourlyPrecipIn,Conditions,Clouds,dailyrainin,SoftwareType,DateUTC
2013-07-04 00:00:00,66.0,38.3,29.85,NW,315,3.0,7.0,36,0.00,,---,0.00,VWS V14.01,2013-07-04 07:00:00,
2013-07-04 00:15:00,64.5,39.7,29.85,WNW,292,1.0,6.0,40,0.00,,---,0.00,VWS V14.01,2013-07-04 07:15:00,
2013-07-04 00:30:00,63.2,39.1,29.86,WNW,292,0.0,0.0,41,0.00,,---,0.00,VWS V14.01,2013-07-04 07:30:00,
2013-07-04 00:45:00,62.2,43.9,29.86,WNW,292,0.0,0.0,51,0.00,,---,0.00,VWS V14.01,2013-07-04 07:45:00,
2013-07-04 01:00:00,60.9,38.9,29.86,WNW,292,0.0,0.0,44,0.00,,---,0.00,VWS V14.01,2013-07-04 08:00:00,
2013-07-04 01:15:00,60.7,42.0,29.86,WNW,292,0.0,0.0,50,0.00,,---,0.00,VWS V14.01,2013-07-04 08:15:00,
2013-07-04 01:30:00,57.8,37.7,29.86,WNW,292,0.0,0.0,47,0.00,,---,0.00,VWS V14.01,2013-07-04 08:30:00,
2013-07-04 01:45:00,59.0,36.0,29.86,WNW,292,0.0,0.0,42,0.00,,---,0.00,VWS V14.01,2013-07-04 08:45:00,
2013-07-04 02:00:00,55.0,38.7,29.86,ENE,68,1.0,5.0,54,0.00,,---,0.00,VWS V14.01,2013-07-04 09:00:00,
2013-07-04 02:15:00,57.4,35.1,29.87,NNE,22,3.0,8.0,43,0.00,,---,0.00,VWS V14.01,2013-07-04 09:15:00,
2013-07-04 02:30:00,56.5,36.0,29.87,NNE,22,1.0,5.0,46,0.00,,---,0.00,VWS V14.01,2013-07-04 09:30:00,
2013-07-04 02:45:00,54.4,41.7,29.87,NNE,22,0.0,0.0,62,0.00,,---,0.00,VWS V14.01,2013-07-04 09:45:00,
2013-07-04 03:00:00,53.5,40.8,29.87,NNE,22,0.0,0.0,62,0.00,,---,0.00,VWS V14.01,2013-07-04 10:00:00,
2013-07-04 03:15:00,54.1,35.9,29.86,NNE,22,0.0,0.0,50,0.00,,---,0.00,VWS V14.01,2013-07-04 10:15:00,
2013-07-04 03:30:00,54.2,37.9,29.86,NNE,22,0.0,0.0,54,0.00,,---,0.00,VWS V14.01,2013-07-04 10:30:00,
2013-07-04 03:45:00,52.4,38.1,29.86,NNE,22,0.0,0.0,58,0.00,,---,0.00,VWS V14.01,2013-07-04 10:45:00,
2013-07-04 04:00:00,51.0,37.6,29.86,NNE,22,0.0,0.0,60,0.00,,---,0.00,VWS V14.01,2013-07-04 11:00:00,
2013-07-04 04:15:00,49.7,41.8,29.86,NNE,22,0.0,0.0,74,0.00,,---,0.00,VWS V14.01,2013-07-04 11:15:00,
2013-07-04 04:30:00,49.5,41.6,29.86,NNE,22,0.0,0.0,74,0.00,,---,0.00,VWS V14.01,2013-07-04 11:30:00,
2013-07-04 04:45:00,49.7,38.0,29.86,NNE,22,0.0,0.0,64,0.00,,---,0.00,VWS V14.01,2013-07-04 11:45:00,
2013-07-04 05:00:00,49.4,38.1,29.86,NNE,22,0.0,0.0,65,0.00,,---,0.00,VWS V14.01,2013-07-04 12:00:00,
2013-07-04 05:15:00,48.1,39.9,29.86,NNE,22,0.0,0.0,73,0.00,,---,0.00,VWS V14.01,2013-07-04 12:15:00,
2013-07-04 05:30:00,49.7,36.4,29.87,NE,45,2.0,6.0,60,0.00,,---,0.00,VWS V14.01,2013-07-04 12:30:00,
2013-07-04 05:45:00,51.5,36.3,29.87,NE,45,2.0,5.0,56,0.00,,---,0.00,VWS V14.01,2013-07-04 12:45:00,
2013-07-04 06:00:00,49.9,38.2,29.88,NE,45,1.0,5.0,64,0.00,,---,0.00,VWS V14.01,2013-07-04 13:00:00,
2013-07-04 06:15:00,49.8,38.9,29.88,NE,45,0.0,0.0,66,0.00,,---,0.00,VWS V14.01,2013-07-04 13:15:00,
2013-07-04 06:30:00,50.8,42.5,29.88,NE,45,0.0,0.0,73,0.00,,---,0.00,VWS V14.01,2013-07-04 13:30:00,
2013-07-04 06:45:00,51.0,40.8,29.89,NE,45,0.0,0.0,68,0.00,,---,0.00,VWS V14.01,2013-07-04 13:45:00,
2013-07-04 07:00:00,52.5,43.4,29.89,NE,45,0.0,0.0,71,0.00,,---,0.00,VWS V14.01,2013-07-04 14:00:00,
2013-07-04 07:15:00,54.4,42.1,29.89,NE,45,0.0,0.0,63,0.00,,---,0.00,VWS V14.01,2013-07-04 14:15:00,
2013-07-04 07:30:00,56.4,42.3,29.89,NE,45,0.0,0.0,59,0.00,,---,0.00,VWS V14.01,2013-07-04 14:30:00,
2013-07-04 07:45:00,57.6,42.5,29.89,NE,45,0.0,0.0,57,0.00,,---,0.00,VWS V14.01,2013-07-04 14:45:00,
2013-07-04 08:00:00,59.4,41.8,29.89,NE,45,0.0,0.0,52,0.00,,---,0.00,VWS V14.01,2013-07-04 15:00:00,
2013-07-04 08:15:00,60.9,45.1,29.89,NE,45,0.0,0.0,56,0.00,,---,0.00,VWS V14.01,2013-07-04 15:15:00,
2013-07-04 08:30:00,60.7,44.0,29.89,NE,45,0.0,0.0,54,0.00,,---,0.00,VWS V14.01,2013-07-04 15:30:00,
2013-07-04 08:45:00,62.6,43.7,29.89,NE,45,0.0,0.0,50,0.00,,---,0.00,VWS V14.01,2013-07-04 15:45:00,
2013-07-04 09:00:00,65.8,44.5,29.88,NE,45,0.0,0.0,46,0.00,,---,0.00,VWS V14.01,2013-07-04 16:00:00,
2013-07-04 09:15:00,66.9,43.7,29.88,NE,45,0.0,0.0,43,0.00,,---,0.00,VWS V14.01,2013-07-04 16:15:00,
2013-07-04 09:30:00,68.1,42.2,29.88,NE,45,0.0,0.0,39,0.00,,---,0.00,VWS V14.01,2013-07-04 16:30:00,
2013-07-04 09:45:00,68.2,46.7,29.87,NE,45,0.0,0.0,46,0.00,,---,0.00,VWS V14.01,2013-07-04 16:45:00,
2013-07-04 10:00:00,69.3,43.3,29.87,NE,45,0.0,0.0,39,0.00,,---,0.00,VWS V14.01,2013-07-04 17:00:00,
2013-07-04 10:15:00,70.3,43.5,29.87,NE,45,0.0,0.0,38,0.00,,---,0.00,VWS V14.01,2013-07-04 17:15:00,
2013-07-04 10:30:00,71.7,45.5,29.86,NE,45,0.0,0.0,39,0.00,,---,0.00,VWS V14.01,2013-07-04 17:30:00,
2013-07-04 10:45:00,72.5,41.0,29.85,East,90,0.0,5.0,32,0.00,,---,0.00,VWS V14.01,2013-07-04 17:45:00,
2013-07-04 11:00:00,73.9,43.8,29.85,East,90,0.0,0.0,34,0.00,,---,0.00,VWS V14.01,2013-07-04 18:00:00,
2013-07-04 11:15:00,73.8,45.9,29.85,ESE,112,0.0,5.0,37,0.00,,---,0.00,VWS V14.01,2013-07-04 18:15:00,
2013-07-04 11:30:00,74.8,45.3,29.84,South,180,0.0,4.0,35,0.00,,---,0.00,VWS V14.01,2013-07-04 18:30:00,
2013-07-04 11:45:00,74.0,46.1,29.84,SSE,158,1.0,6.0,37,0.00,,---,0.00,VWS V14.01,2013-07-04 18:45:00,
2013-07-04 12:00:00,74.8,43.0,29.84,South,180,1.0,5.0,32,0.00,,---,0.00,VWS V14.01,2013-07-04 19:00:00,
2013-07-04 12:15:00,75.4,43.5,29.84,West,270,2.0,10.0,32,0.00,,---,0.00,VWS V14.01,2013-07-04 19:15:00,
2013-07-04 12:30:00,75.8,44.7,29.83,WNW,292,3.0,14.0,33,0.00,,---,0.00,VWS V14.01,2013-07-04 19:30:00,
2013-07-04 12:45:00,76.2,42.5,29.83,NW,315,4.0,13.0,30,0.00,,---,0.00,VWS V14.01,2013-07-04 19:45:00,
2013-07-04 13:00:00,76.4,41.8,29.83,WNW,292,7.0,16.0,29,0.00,,---,0.00,VWS V14.01,2013-07-04 20:00:00,
2013-07-04 13:15:00,76.5,42.8,29.83,WNW,292,6.0,14.0,30,0.00,,---,0.00,VWS V14.01,2013-07-04 20:15:00,
2013-07-04 13:30:00,76.9,40.4,29.83,WNW,292,7.0,17.0,27,0.00,,---,0.00,VWS V14.01,2013-07-04 20:30:00,
2013-07-04 13:45:00,77.2,40.7,29.82,West,270,6.0,15.0,27,0.00,,---,0.00,VWS V14.01,2013-07-04 20:45:00,
2013-07-04 14:00:00,77.3,39.8,29.81,West,270,7.0,15.0,26,0.00,,---,0.00,VWS V14.01,2013-07-04 21:00:00,
2013-07-04 14:15:00,78.0,45.8,29.81,WNW,292,4.0,15.0,32,0.00,,---,0.00,VWS V14.01,2013-07-04 21:15:00,
2013-07-04 14:30:00,78.1,42.4,29.80,NW,315,9.0,17.0,28,0.00,,---,0.00,VWS V14.01,2013-07-04 21:30:00,
2013-07-04 14:45:00,78.3,45.2,29.79,WNW,292,6.0,15.0,31,0.00,,---,0.00,VWS V14.01,2013-07-04 21:45:00,
2013-07-04 15:00:00,78.6,43.7,29.79,West,270,6.0,15.0,29,0.00,,---,0.00,VWS V14.01,2013-07-04 22:00:00,
2013-07-04 15:15:00,78.5,43.6,29.78,WNW,292,6.0,16.0,29,0.00,,---,0.00,VWS V14.01,2013-07-04 22:15:00,
2013-07-04 15:30:00,78.4,46.1,29.78,WNW,292,8.0,18.0,32,0.00,,---,0.00,VWS V14.01,2013-07-04 22:30:00,
2013-07-04 15:45:00,78.4,45.3,29.78,West,270,6.0,18.0,31,0.00,,---,0.00,VWS V14.01,2013-07-04 22:45:00,
2013-07-04 16:00:00,78.4,46.1,29.78,WSW,248,4.0,12.0,32,0.00,,---,0.00,VWS V14.01,2013-07-04 23:00:00,
2013-07-04 16:15:00,78.7,41.9,29.77,West,270,6.0,17.0,27,0.00,,---,0.00,VWS V14.01,2013-07-04 23:15:00,
2013-07-04 16:30:00,78.7,44.7,29.77,WNW,292,8.0,16.0,30,0.00,,---,0.00,VWS V14.01,2013-07-04 23:30:00,
2013-07-04 16:45:00,78.2,44.3,29.77,WNW,292,9.0,21.0,30,0.00,,---,0.00,VWS V14.01,2013-07-04 23:45:00,
2013-07-04 17:00:00,78.7,44.7,29.77,WNW,292,6.0,16.0,30,0.00,,---,0.00,VWS V14.01,2013-07-05 00:00:00,
2013-07-04 17:15:00,78.3,40.6,29.76,WNW,292,6.0,17.0,26,0.00,,---,0.00,VWS V14.01,2013-07-05 00:15:00,
2013-07-04 17:30:00,78.5,40.8,29.76,WNW,292,7.0,16.0,26,0.00,,---,0.00,VWS V14.01,2013-07-05 00:30:00,
2013-07-04 17:45:00,77.6,47.8,29.76,West,270,5.0,17.0,35,0.00,,---,0.00,VWS V14.01,2013-07-05 00:45:00,
2013-07-04 18:00:00,77.5,45.3,29.76,West,270,7.0,16.0,32,0.00,,---,0.00,VWS V14.01,2013-07-05 01:00:00,
2013-07-04 18:15:00,76.6,44.6,29.76,West,270,7.0,14.0,32,0.00,,---,0.00,VWS V14.01,2013-07-05 01:15:00,
2013-07-04 18:30:00,76.2,43.4,29.76,WNW,292,9.0,17.0,31,0.00,,---,0.00,VWS V14.01,2013-07-05 01:30:00,
2013-07-04 18:45:00,75.1,44.1,29.76,West,270,10.0,19.0,33,0.00,,---,0.00,VWS V14.01,2013-07-05 01:45:00,
2013-07-04 19:00:00,74.0,45.4,29.77,West,270,7.0,14.0,36,0.00,,---,0.00,VWS V14.01,2013-07-05 02:00:00,
2013-07-04 19:15:00,72.9,42.9,29.77,West,270,7.0,16.0,34,0.00,,---,0.00,VWS V14.01,2013-07-05 02:15:00,
2013-07-04 19:30:00,71.3,40.7,29.77,West,270,12.0,22.0,33,0.00,,---,0.00,VWS V14.01,2013-07-05 02:30:00,
2013-07-04 19:45:00,70.7,40.2,29.77,West,270,12.0,22.0,33,0.00,,---,0.00,VWS V14.01,2013-07-05 02:45:00,
2013-07-04 20:00:00,69.9,40.3,29.77,West,270,10.0,21.0,34,0.00,,---,0.00,VWS V14.01,2013-07-05 03:00:00,
2013-07-04 20:15:00,68.5,41.2,29.77,West,270,9.0,20.0,37,0.00,,---,0.00,VWS V14.01,2013-07-05 03:15:00,
2013-07-04 20:30:00,67.6,40.4,29.77,West,270,14.0,25.0,37,0.00,,---,0.00,VWS V14.01,2013-07-05 03:30:00,
2013-07-04 20:45:00,66.5,41.5,29.78,West,270,13.0,24.0,40,0.00,,---,0.00,VWS V14.01,2013-07-05 03:45:00,
2013-07-04 21:00:00,65.8,41.5,29.78,WNW,292,13.0,22.0,41,0.00,,---,0.00,VWS V14.01,2013-07-05 04:00:00,
2013-07-04 21:15:00,65.7,41.4,29.78,WNW,292,13.0,24.0,41,0.00,,---,0.00,VWS V14.01,2013-07-05 04:15:00,
2013-07-04 21:30:00,65.0,40.8,29.79,WNW,292,14.0,24.0,41,0.00,,---,0.00,VWS V14.01,2013-07-05 04:30:00,
2013-07-04 21:45:00,64.3,40.7,29.79,WNW,292,11.0,21.0,42,0.00,,---,0.00,VWS V14.01,2013-07-05 04:45:00,
2013-07-04 22:00:00,63.5,40.6,29.80,West,270,8.0,20.0,43,0.00,,---,0.00,VWS V14.01,2013-07-05 05:00:00,
2013-07-04 22:15:00,63.6,40.1,29.81,WNW,292,10.0,21.0,42,0.00,,---,0.00,VWS V14.01,2013-07-05 05:15:00,
2013-07-04 22:30:00,62.9,40.7,29.81,WNW,292,6.0,19.0,44,0.00,,---,0.00,VWS V14.01,2013-07-05 05:30:00,
2013-07-04 22:45:00,62.1,40.5,29.81,WNW,292,9.0,21.0,45,0.00,,---,0.00,VWS V14.01,2013-07-05 05:45:00,
2013-07-04 23:00:00,61.4,41.0,29.81,WNW,292,12.0,23.0,47,0.00,,---,0.00,VWS V14.01,2013-07-05 06:00:00,
2013-07-04 23:15:00,61.1,40.7,29.81,WNW,292,14.0,23.0,47,0.00,,---,0.00,VWS V14.01,2013-07-05 06:15:00,
2013-07-04 23:30:00,60.0,41.3,29.81,WNW,292,12.0,21.0,50,0.00,,---,0.00,VWS V14.01,2013-07-05 06:30:00,
2013-07-04 23:45:00,60.3,40.5,29.81,WNW,292,10.0,19.0,48,0.00,,---,0.00,VWS V14.01,2013-07-05 06:45:00,